Location: Trebic
(49.2170°N, 15.8830°E)
Time: 18:30:38
(UTC+02:00)

Courier 1B Rocket - Pass Details

Date: 25 August 2019
Orbit: 920 x 1202 km, 28.2° (Epoch: 17 September)

Event Time Altitude Azimuth Distance (km) Brightness Sun altitude
Rises 07:04:19 0° 242° (WSW) 4,021 7.6 9.1°
Reaches altitude 10° 07:10:41 10° 203° (SSW) 3,108 7.4 10.1°
Maximum altitude 07:11:37 10° 196° (SSW) 3,094 7.5 10.3°
Drops below altitude 10° 07:12:34 10° 189° (S) 3,116 7.5 10.4°
Sets 07:19:02 0° 151° (SSE) 4,087 8.6 11.5°
